Location: Vigo di Fassa
(46.4167°N, 11.6667°E)
Time: 20:24:25
(UTC+00:00)

Cosmos 2341 Rocket - Pass Details

Date: 03 March 2021
Orbit: 968 x 1004 km, 82.9° (Epoch: 20 April)

Event Time Altitude Azimuth Distance (km) Brightness Sun altitude
Rises 18:28:47 0° 180° (S) 3,698 7.0 -15.7°
Reaches altitude 10° 18:31:18 10° 178° (S) 2,749 6.3 -16.1°
Maximum altitude 18:37:35 73° 95° (E) 1,031 3.9 -17.2°
Drops below altitude 10° 18:43:51 10° 12° (NNE) 2,742 6.3 -18.2°
Sets 18:46:21 0° 11° (N) 3,689 7.0 -18.7°
